Regional Weather Roundup
Issued by NWS

Home | Current Version | Previous Version | Graphics & Text | Print | Product List | Glossary On
Versions: 1 2 3 4 5 6 7 8 9 10 11 12 13 14 15 16 17 18 19 20 21 22 23 24 25 26 27 28 29 30 31 32 33 34 35 36 37 38 39 40 41 42 43 44 45 46 47 48 49 50
000
ASUS45 KSLC 261310
RWRUT

UTAH REGIONAL WEATHER ROUNDUP
NATIONAL WEATHER SERVICE SALT LAKE CITY UT
700 AM MDT TUE MAY 26 2015

UTZ001>011-023>025-261400-

NORTHERN UTAH

CITY           SKY/WX    TMP DP  RH WIND       PRES   REMARKS
BRIGHAM CITY   CLOUDY    52  48  87 N5        30.01R
HILL AFB       CLOUDY    50  46  87 E8        30.03R
LOGAN          MOCLDY    48  46  93 W3        30.01R
OGDEN          CLOUDY    51  48  89 S10       30.01R
PROVO AIRPORT  CLOUDY    54  46  76 SE10      30.05R
SALT LAKE CITY MOCLDY    58  47  66 SE7       30.00R
VERNAL         MOSUNNY   46  41  82 W3        30.07R
WENDOVER       CLOUDY    54  46  76 CALM      30.00R
HEBER CITY     MOCLDY    41  39  93 CALM      30.07R
WEST JORDAN    CLOUDY    55  48  76 SE5       30.02R

$$

UTZ012>022-026-027-261400-

SOUTHERN/CENTRAL UTAH

CITY           SKY/WX    TMP DP  RH WIND       PRES   REMARKS
BLANDING       MOCLDY    46  43  89 CALM      30.18R
BRYCE CANYON   LGT RAIN  43  39  86 NW17      30.17S
CEDAR CITY     RAIN      50  46  86 E9        30.12S FOG
DELTA          CLOUDY    53  48  83 S13       30.06R
HANKSVILLE     PTCLDY    50  46  87 CALM      30.04R
MILFORD        CLOUDY    51  45  79 S16G23    30.07S
MOAB/CYNLANDS  PTSUNNY   51  44  77 CALM      30.02R
PRICE          CLOUDY    49  41  74 CALM      30.06R
ST GEORGE      PTSUNNY   63  43  48 NE5       30.02R

$$

REGIONAL REPORTS     COLORADO/ARIZONA

CITY           SKY/WX    TMP DP  RH WIND       PRES   REMARKS
CRAIG, CO      CLOUDY    44  41  89 CALM      30.11R
GRAND JUNCTION MOSUNNY   51  45  79 E10       30.06R
RIFLE          CLOUDY    45  42  89 SW3       30.12R
MONTROSE       PTSUNNY   47  40  76 SE7       30.13R
CORTEZ         SUNNY     40  38  93 CALM      30.13R
PAGE, AZ       PTCLDY    59  47  64 CALM      30.03R
GRAND CANYON   CLEAR     38  35  89 E5        30.16R WCI  34
KINGMAN        CLEAR     58  34  40 SE10      30.01R
FLAGSTAFF      CLEAR     36  34  92 CALM      30.19R

$$

REGIONAL REPORTS    NEVADA/IDAHO/WYOMING

CITY           SKY/WX    TMP DP  RH WIND       PRES   REMARKS
LAS VEGAS, NV  PTCLDY    72  40  31 S10       29.87R
ELY            CLEAR     43  42  97 SE3       30.10R
ELKO           CLOUDY    48  45  89 E3        30.04R
POCATELLO, ID  MOCLDY    49  49 100 NW6       30.00R
BURLEY         CLOUDY    53  45  74 MISG      29.97R
EVANSTON, WY   CLOUDY    42  38  85 S5        30.10R
ROCK SPRINGS   MOSUNNY   44  39  82 SW7       30.09R
KEMMERER       MOSUNNY   36  36 100 N9        30.11R WCI  29

$$



USA.gov is the U.S. government's official web portal to all federal, state and local government web resources and services.